Theta_e
347 347 351 351 356 357 364 362 357 354 351 347 344 349 351 354 353 349 347 347 346 347 348 350 349 351 352 349 349 350 351 351 351 350 351 353 353 352 352 352 353 352 351 339 351 352 352 353 351
347 346 347 349 360 363 365 361 359 356 351 348 349 349 350 358 350 350 348 346 345 347 347 349 348 351 351 349 349 349 352 352 352 351 351 352 353 353 353 351 349 351 352 353 348 351 350 351 352
347 349 346 350 353 359 361 361 356 353 351 350 351 348 350 354 349 347 348 347 347 345 347 349 348 351 350 352 349 351 352 352 351 351 351 350 351 350 350 351 352 345 343 351 353 351 352 352 352
345 347 349 351 355 353 358 358 357 354 351 348 349 352 346 348 346 348 349 348 347 345 347 350 350 352 354 354 354 353 351 350 350 351 351 350 350 348 347 342 342 351 351 348 349 351 351 352 351
350 349 355 356 358 355 353 352 357 358 353 351 349 350 350 347 347 349 350 348 345 345 349 350 351 352 353 352 351 351 351 350 344 348 349 349 350 351 351 352 351 351 346 351 352 349 349 350 350
349 347 355 357 358 357 358 355 356 356 354 351 350 348 347 350 349 349 349 348 345 343 348 348 350 351 351 351 351 351 351 350 345 347 349 351 352 349 351 350 351 351 351 348 346 351 350 349 344
349 350 357 360 361 362 359 355 356 354 354 353 348 349 347 348 349 348 348 347 347 345 346 348 351 351 352 352 352 352 352 351 351 348 351 350 352 348 349 350 350 350 351 350 349 348 349 347 348
349 349 357 357 365 363 357 356 353 354 356 348 344 350 350 346 350 347 348 348 347 347 345 348 349 349 351 351 353 353 353 352 351 352 351 351 350 351 346 343 348 351 351 351 350 348 348 349 347
347 347 354 352 364 363 357 358 351 350 351 350 350 345 344 347 348 348 348 351 348 348 348 348 348 349 349 348 352 352 353 353 352 350 352 349 345 343 343 340 341 349 349 351 350 350 344 344 346
341 347 349 346 353 360 358 355 355 354 354 355 349 344 345 347 348 348 348 349 350 349 349 348 349 348 349 353 350 351 351 349 346 344 343 340 342 342 339 335 334 340 349 351 351 350 349 348 344
342 347 344 346 349 356 359 359 356 353 356 354 353 351 349 348 348 347 348 348 348 347 347 346 348 346 349 351 350 351 346 345 345 341 338 339 339 339 338 336 335 334 345 345 347 348 349 347 345
344 343 346 355 356 358 359 356 357 353 353 352 351 350 350 349 349 348 349 349 348 348 347 345 348 349 349 349 347 348 343 343 341 340 340 339 336 334 333 336 337 337 343 341 343 341 342 344 345
344 347 349 354 354 356 354 358 357 354 351 352 352 351 351 350 349 349 349 350 349 348 348 346 345 347 350 349 346 346 344 341 338 340 338 334 335 336 337 333 341 339 341 341 340 343 342 342 341
341 347 346 352 352 353 358 358 354 351 351 353 353 353 351 350 350 350 350 349 349 349 347 347 347 346 346 346 345 344 346 343 342 338 332 332 333 337 337 335 341 342 341 342 342 342 343 344 344
345 349 349 355 356 358 354 359 357 351 352 354 353 352 351 350 350 350 350 349 348 348 348 347 348 347 346 345 346 344 344 343 343 337 333 336 339 336 337 334 343 343 342 343 341 344 343 344 344
346 346 351 350 355 356 349 357 356 350 353 354 353 352 351 350 349 349 350 349 349 348 347 347 347 347 346 346 346 346 345 345 340 334 338 341 339 338 337 341 346 344 344 344 344 343 344 345 345
338 351 349 352 352 357 352 357 355 348 352 353 351 350 350 349 348 349 349 349 349 348 347 347 347 347 347 346 347 348 346 345 340 340 341 342 342 343 341 344 346 346 346 345 343 343 344 344 343
346 350 346 352 350 349 348 352 355 352 348 350 351 349 348 349 347 347 348 348 348 347 346 346 347 348 348 348 348 348 347 346 345 341 340 345 345 344 345 345 346 346 346 344 343 343 345 345 345
333 337 345 345 347 347 348 351 356 354 351 350 347 346 346 347 346 346 347 348 348 346 346 346 347 347 348 348 348 348 347 346 345 342 341 343 346 346 346 345 345 345 345 345 343 342 345 344 343
334 336 337 336 345 347 347 351 354 354 354 351 349 347 344 343 343 343 345 347 347 347 347 346 347 348 347 348 348 348 347 347 346 345 344 344 345 346 346 346 346 345 346 346 345 345 345 343 337
334 334 334 336 346 343 350 351 352 354 352 351 347 345 344 342 343 343 344 346 346 346 346 346 346 346 347 348 347 348 348 349 348 347 346 345 346 348 348 347 346 346 347 347 345 345 346 345 343
337 334 334 346 344 347 346 346 346 349 353 350 348 344 345 341 343 343 343 344 345 346 346 346 346 346 347 348 348 348 349 349 348 348 348 348 348 346 344 346 346 347 348 347 346 346 346 346 343
336 333 331 341 329 342 342 336 334 348 351 349 346 344 344 343 343 343 343 345 345 345 346 346 346 347 347 347 348 349 350 350 348 348 345 345 346 346 346 347 344 345 347 347 345 347 346 347 347
332 327 323 320 320 327 330 339 336 347 348 348 345 345 344 345 343 343 343 344 346 346 347 347 347 347 347 348 349 349 351 350 349 350 350 348 348 348 347 347 336 336 344 346 345 345 348 349 348
325 325 328 329 325 327 325 329 329 339 342 342 345 344 344 344 345 344 344 344 346 348 348 348 348 347 347 348 349 349 350 351 350 350 351 349 349 348 348 347 342 339 341 339 340 346 345 343 346
325 324 327 332 327 327 331 336 339 341 341 342 341 344 345 344 343 346 346 344 343 346 348 350 349 349 348 349 349 350 350 351 350 352 352 352 349 348 349 349 347 346 343 340 341 345 348 348 347
323 325 322 321 319 325 328 339 337 341 344 346 346 346 345 344 344 345 342 342 342 340 342 350 351 352 350 349 346 347 349 351 350 352 354 352 351 350 351 351 348 347 348 347 343 342 345 343 346
321 319 323 319 327 328 332 344 338 340 345 346 346 344 343 344 344 344 346 348 345 341 343 350 352 346 343 344 342 339 338 340 341 352 354 349 351 351 351 349 349 350 350 352 351 350 351 350 350
328 329 318 318 320 326 334 334 333 337 342 347 345 344 344 344 343 343 347 350 350 342 340 340 340 342 344 345 343 342 336 335 336 345 346 343 351 351 350 350 349 349 348 343 344 348 348 345 342
329 330 321 324 327 329 329 334 339 341 341 345 343 343 345 344 341 340 345 345 343 345 341 338 337 337 341 338 336 336 337 335 337 342 349 350 351 349 351 352 348 342 341 342 342 340 338 339 340
Wind_Speed
3 4 7 1 3 5 2 2 3 5 4 2 8 4 5 4 1 2 15 21 31 29 26 25 23 22 22 23 23 23 22 22 23 22 19 17 18 17 17 16 14 13 12 13 13 12 15 15 14
3 4 3 2 4 4 3 3 4 4 4 7 6 3 4 3 4 10 15 33 31 30 27 25 24 23 22 23 23 21 20 19 20 19 18 17 16 16 15 14 13 13 12 11 11 12 11 14 13
6 3 3 4 3 3 2 3 4 5 7 4 4 5 3 2 8 20 15 37 32 31 28 25 25 23 22 22 21 21 19 18 18 17 16 14 13 13 14 14 13 11 10 11 11 11 11 12 12
1 4 4 4 3 1 2 2 3 2 5 6 6 6 5 6 13 11 31 34 33 32 29 25 24 22 21 20 20 19 18 17 16 15 14 13 11 11 10 11 11 11 9 8 9 10 9 10 10
3 3 4 4 2 2 4 2 2 2 3 4 2 4 5 4 13 30 29 31 34 33 29 25 23 21 19 18 18 17 16 16 15 14 13 11 10 9 10 9 8 8 8 10 9 8 8 9 10
4 3 5 3 2 2 1 3 1 3 4 7 8 6 3 15 26 27 29 31 31 33 29 26 23 21 18 16 15 14 15 14 14 13 11 10 9 8 7 7 7 7 7 8 10 9 8 7 8
3 3 2 1 2 2 2 6 1 6 5 4 5 4 4 10 18 24 28 29 29 29 30 26 23 20 18 16 15 14 14 14 13 12 11 10 8 7 7 6 6 8 8 8 8 9 9 8 8
3 3 3 1 3 3 4 6 8 9 3 7 9 6 5 11 21 23 27 27 28 28 28 27 24 22 19 17 15 14 14 14 12 11 10 9 8 8 7 7 6 7 8 7 8 8 8 8 8
2 3 1 3 6 3 7 4 1 5 7 3 2 6 13 28 25 24 22 22 25 26 25 26 25 24 22 20 18 16 15 14 13 11 9 9 10 8 6 6 6 8 9 9 8 7 7 8 7
3 3 7 7 6 5 9 8 7 5 6 5 11 17 26 26 25 23 23 21 23 24 26 27 27 26 23 22 20 18 16 15 13 10 9 9 9 8 6 5 4 9 10 9 9 8 7 6 8
5 5 6 4 4 10 6 4 3 11 2 6 14 16 18 21 19 18 20 24 28 28 29 30 28 26 25 24 22 21 19 16 15 14 15 11 11 9 8 9 8 9 12 11 11 10 10 9 8
4 5 5 5 8 7 8 6 4 8 4 11 18 22 18 16 17 21 20 21 24 27 29 30 29 28 27 25 25 23 20 18 16 15 15 14 12 13 11 7 9 10 12 10 10 10 10 10 10
3 2 5 9 9 9 10 3 4 9 11 15 15 16 17 16 19 20 19 17 23 27 29 30 31 30 28 27 26 23 21 18 15 16 15 15 16 17 16 14 7 8 10 8 9 9 11 10 10
2 10 7 6 7 5 6 3 3 3 12 15 16 16 15 16 20 18 18 20 24 26 30 30 32 31 30 29 28 24 23 19 17 16 17 18 19 18 16 15 11 12 9 10 10 9 11 10 10
6 7 7 5 4 3 8 1 3 11 13 16 15 15 13 13 18 22 26 23 28 30 29 32 33 31 31 30 27 25 22 19 18 17 15 17 16 15 15 16 14 14 11 8 8 8 9 10 10
5 5 4 4 5 4 4 4 3 11 14 12 12 12 13 14 23 24 22 23 30 29 29 30 30 31 30 28 26 23 21 19 19 17 14 14 14 15 15 15 12 11 11 9 10 7 8 9 10
6 4 2 3 7 4 2 3 6 9 13 12 12 11 12 11 14 21 22 25 30 30 27 29 29 30 29 28 24 22 20 20 19 17 15 13 12 12 15 14 11 10 10 10 8 10 8 8 9
4 3 3 6 7 5 5 5 6 11 12 14 14 13 11 12 16 22 20 23 27 28 29 28 29 29 27 27 23 21 20 21 19 17 17 14 14 15 16 15 13 12 13 10 10 10 11 12 10
2 4 6 4 6 5 9 3 8 11 11 12 12 13 14 16 20 17 19 21 25 27 27 29 28 28 26 25 22 21 22 21 20 18 18 17 17 16 16 17 17 18 16 12 11 12 12 13 9
3 4 6 3 5 9 4 4 6 13 18 16 13 11 15 14 7 11 20 22 26 29 29 29 28 28 27 25 24 23 19 20 20 17 17 17 17 18 19 20 20 19 19 17 14 12 10 10 10
3 5 3 2 5 3 4 4 5 8 9 10 9 9 9 13 12 9 15 24 25 27 32 31 30 29 26 26 25 23 18 16 14 16 18 18 17 18 19 21 20 21 21 20 16 14 14 12 8
4 3 3 10 6 5 3 5 6 8 13 13 15 10 12 9 8 9 14 18 25 34 30 30 29 29 27 26 26 25 23 17 14 15 14 12 15 17 22 20 19 20 18 20 18 15 16 15 12
6 2 1 6 4 5 3 3 7 2 9 18 15 14 11 11 12 11 15 22 28 23 29 29 28 27 28 27 26 26 24 22 17 12 12 12 13 13 15 14 12 13 16 16 16 17 14 16 16
2 4 6 5 3 1 3 4 8 4 8 10 7 11 9 9 9 8 14 16 21 21 24 27 27 31 30 28 27 27 27 23 20 18 18 15 13 14 14 11 8 7 11 14 16 17 15 16 16
4 5 3 3 4 5 2 4 9 5 7 5 8 11 11 9 7 6 7 6 5 10 19 22 27 30 31 28 29 28 28 25 22 22 20 20 15 13 13 15 14 11 9 12 16 14 16 16 18
2 5 5 5 3 4 5 5 5 6 8 9 8 10 7 7 8 10 6 11 12 9 14 18 20 30 29 24 21 24 26 28 27 23 22 20 15 14 10 9 10 11 9 7 9 13 13 15 19
4 3 4 7 3 3 2 5 8 4 7 6 3 5 7 11 10 7 11 15 11 10 9 11 16 9 8 10 2 6 14 29 29 25 20 18 16 16 13 9 6 5 5 6 7 9 9 11 14
3 6 3 3 3 3 4 3 5 5 7 8 3 4 7 9 11 11 9 11 9 12 16 14 16 22 15 13 8 5 13 19 37 31 22 18 19 12 9 5 4 3 2 5 5 7 8 9 10
4 1 6 5 4 5 2 6 6 7 7 5 3 1 5 8 9 9 9 11 12 20 17 19 19 18 14 16 13 13 11 27 44 38 24 21 12 9 7 5 3 3 3 3 5 6 7 9 10
3 3 4 5 4 1 4 5 1 4 4 2 6 4 6 9 12 8 12 16 17 13 11 13 13 12 11 10 7 8 16 17 41 37 28 15 11 9 7 6 4 3 3 3 5 7 9 11 13
Wind_Direction
93 137 163 156 46 64 75 337 280 105 129 114 158 158 144 64 135 197 150 155 149 146 147 142 139 135 133 131 129 127 125 125 126 124 123 125 126 126 126 126 120 113 112 108 114 114 118 119 119
205 147 76 69 75 54 341 342 33 7 109 112 86 81 55 93 84 124 133 155 150 147 149 147 143 136 136 135 133 130 127 126 123 125 128 129 129 125 121 117 118 119 115 118 121 125 124 126 131
69 168 82 86 93 133 165 9 22 89 114 124 106 60 57 70 118 142 156 153 150 150 153 149 147 141 140 139 136 134 134 131 129 128 127 127 126 125 126 125 123 121 128 133 125 129 137 138 139
64 25 44 69 85 187 135 252 49 34 20 69 107 70 74 129 136 155 147 153 153 153 154 152 151 148 146 146 142 141 141 138 138 135 133 136 136 134 129 130 137 140 141 133 138 140 147 149 145
51 56 58 86 64 266 213 254 310 88 75 69 104 68 96 30 132 139 148 156 156 155 155 157 155 154 154 154 152 151 150 148 148 143 141 145 148 144 138 138 148 152 162 157 152 152 158 164 166
37 96 47 38 16 243 315 198 350 78 84 118 88 91 59 130 133 147 154 161 161 158 161 163 163 160 162 162 162 162 159 157 157 152 152 153 157 153 155 159 163 169 182 183 177 171 174 174 183
96 72 121 64 326 328 213 112 196 120 133 89 117 76 109 140 141 151 161 164 163 164 169 169 171 171 176 175 173 173 170 165 166 163 162 167 162 162 166 170 181 181 192 192 196 188 188 189 192
100 82 102 164 196 257 165 157 127 132 64 105 143 148 170 168 147 157 165 166 168 168 176 178 180 183 188 185 183 181 176 170 173 176 177 175 173 182 182 181 188 196 202 200 204 205 200 195 199
135 65 161 231 169 195 144 116 104 94 127 62 131 128 138 148 147 151 155 166 171 176 180 184 188 190 193 188 183 185 185 184 183 186 185 194 195 198 192 183 199 207 217 208 212 210 214 211 204
121 135 211 207 171 167 150 134 151 107 114 57 80 101 130 142 153 158 163 173 180 183 186 189 193 193 192 191 186 193 193 195 195 195 212 209 210 211 207 200 242 220 218 212 215 215 222 217 219
176 209 191 203 131 133 131 112 138 134 108 195 150 142 142 148 165 171 178 184 184 188 191 195 196 196 195 196 194 198 200 205 202 205 224 209 218 226 233 256 273 243 213 217 217 213 222 226 231
165 246 167 120 126 117 144 125 114 171 184 152 156 151 149 166 175 182 187 187 189 193 197 200 200 200 202 202 204 209 206 212 214 218 213 218 228 241 248 267 278 241 206 220 230 231 227 228 235
160 70 53 101 115 118 128 151 181 209 126 132 142 156 165 179 186 192 193 194 195 197 200 204 204 206 209 211 215 216 215 216 218 225 228 243 250 257 253 249 269 199 201 221 235 239 229 228 230
74 87 83 91 118 124 121 156 108 75 133 138 151 171 180 186 190 188 193 196 200 205 205 207 209 212 214 218 221 224 223 224 227 233 246 251 259 258 240 235 240 210 208 233 238 240 236 233 238
135 93 78 87 116 110 114 15 182 143 148 152 175 177 186 197 195 202 198 197 203 212 208 209 211 213 217 221 225 228 234 232 237 249 261 260 255 243 242 226 233 226 233 226 229 220 231 233 240
64 58 119 178 143 181 86 234 135 153 151 166 177 189 195 199 207 210 204 203 211 214 211 213 214 217 221 225 229 233 240 242 248 257 268 257 250 243 232 226 229 211 220 234 229 217 218 229 242
17 171 197 162 209 160 131 224 187 169 165 172 191 204 208 216 216 221 211 208 214 214 214 215 215 220 223 225 229 232 239 242 255 257 259 252 244 242 233 238 242 239 240 236 226 219 225 232 242
214 146 260 206 207 195 163 235 177 175 178 188 195 205 211 220 228 215 208 210 216 216 216 217 219 224 225 229 231 235 240 240 239 248 250 255 253 247 248 251 254 252 253 246 245 245 240 232 247
197 191 195 228 199 162 220 129 202 186 205 199 200 207 215 219 224 213 204 202 210 216 216 218 217 223 226 222 227 234 238 240 240 236 241 250 257 256 256 259 261 261 257 260 260 248 241 224 229
198 181 222 242 192 178 147 207 210 198 212 208 202 203 214 227 207 188 193 196 207 214 217 220 223 224 226 230 227 229 241 248 246 243 242 244 252 260 259 255 253 255 255 253 257 244 237 227 226
195 204 182 182 139 30 89 306 194 228 223 226 228 216 220 211 205 184 182 194 201 213 219 220 222 226 227 229 230 232 242 248 246 245 247 248 252 258 260 260 262 263 250 246 254 245 238 242 230
305 178 126 132 129 199 144 266 249 211 214 221 228 216 213 201 202 192 189 193 200 217 220 221 222 227 227 227 229 229 233 242 256 258 261 263 260 271 265 267 272 270 265 249 250 256 249 245 237
232 88 110 160 110 98 304 81 269 219 224 228 219 220 211 193 191 192 197 199 211 208 215 219 221 226 229 224 227 233 237 250 261 281 283 278 264 263 258 274 280 270 264 252 248 251 246 241 239
202 111 60 60 86 30 229 139 287 197 247 257 213 216 206 179 183 186 203 201 202 211 218 216 217 224 229 228 224 231 237 245 259 264 272 275 260 252 252 254 290 270 264 263 260 257 253 254 254
79 61 351 5 14 221 57 125 242 275 275 266 225 205 207 161 160 136 105 159 141 209 218 222 219 225 227 229 229 232 240 245 253 262 268 275 271 263 253 248 252 265 279 262 252 254 262 262 264
89 161 154 203 199 256 111 226 256 245 293 299 249 200 181 150 78 85 77 81 110 185 217 228 225 232 234 232 245 247 245 247 250 257 266 268 270 276 273 268 277 273 291 287 243 244 257 260 265
194 182 178 103 13 52 245 289 310 315 315 330 237 188 81 80 86 90 68 72 81 81 83 182 201 193 162 173 121 342 331 281 254 254 254 255 260 269 261 263 236 243 273 283 261 261 273 262 269
169 154 79 17 141 241 305 285 241 283 270 278 320 42 72 92 94 100 82 71 84 100 98 106 134 132 134 157 128 20 343 354 335 266 250 264 264 271 239 213 207 260 276 296 297 299 305 297 291
324 47 53 112 112 161 197 262 211 239 233 262 330 293 71 84 107 116 115 89 89 121 111 104 108 136 172 189 236 268 290 317 332 290 270 265 265 255 191 185 210 257 284 297 302 307 308 306 307
219 166 119 118 222 101 151 273 243 280 277 257 267 304 59 76 115 123 136 117 116 136 120 100 99 130 174 200 220 291 289 294 311 294 284 260 240 215 215 224 232 227 271 300 302 304 308 309 309